• In Hungary
  • List of Countries
  • For 7 days
  • Water Temperature
  • Satellite Maps
  • Weather Map
  • News
  • Weather Widgets
  • user-avatar
    Login

    Hourly Weather Gao

    Today, 21 September, Friday

    Time Temperature Precipitation Wind Pressure Humidity
    00:00 +24°C° 0 mm 0 mps 729 mmHg 72%
    01:00 +24°C° 0 mm 0 mps 728 mmHg 73%
    02:00 +24°C° 0 mm 0 mps 728 mmHg 74%
    03:00 +24°C° 0 mm 0 mps 728 mmHg 75%
    04:00 +23°C° 0 mm 0 mps 728 mmHg 76%
    05:00 +24°C° 0 mm 0 mps 728 mmHg 74%
    06:00 +25°C° 0 mm 0 mps 729 mmHg 72%
    07:00 +25°C° 0 mm 0 mps 729 mmHg 77%
    08:00 +28°C° 0 mm 0 mps 730 mmHg 65%
    09:00 +32°C° 0 mm 0 mps 730 mmHg 52%
    10:00 +36°C° 0 mm 0 mps 730 mmHg 40%
    11:00 +36°C° 0 mm 0 mps 730 mmHg 39%
    12:00 +37°C° 0 mm 1 mps 729 mmHg 37%
    13:00 +37°C° 0 mm 2 mps 728 mmHg 42%
    14:00 +35°C° 0 mm 1 mps 728 mmHg 44%
    15:00 +35°C° 0 mm 1 mps 727 mmHg 45%
    16:00 +35°C° 0 mm 1 mps 727 mmHg 47%
    17:00 +33°C° 0 mm 1 mps 727 mmHg 52%
    18:00 +29°C° 0 mm 0 mps 727 mmHg 58%
    19:00 +28°C° 0 mm 0 mps 727 mmHg 63%
    20:00 +26°C° 0.7 mm 0 mps 728 mmHg 70%
    21:00 +27°C° 0.7 mm 1 mps 728 mmHg 77%
    22:00 +26°C° 0.7 mm 1 mps 728 mmHg 84%
    23:00 +26°C° 0.3 mm 1 mps 728 mmHg 87%

    Tomorrow, 22 September, Saturday

    Time Temperature Precipitation Wind Pressure Humidity
    00:00 +25°C° 0.3 mm 1 mps 728 mmHg 90%
    01:00 +25°C° 0.3 mm 1 mps 728 mmHg 93%
    02:00 +25°C° 0.1 mm 1 mps 728 mmHg 94%
    03:00 +24°C° 0.1 mm 1 mps 728 mmHg 95%
    04:00 +24°C° 0.1 mm 1 mps 728 mmHg 95%
    05:00 +25°C° 0.2 mm 1 mps 728 mmHg 94%
    06:00 +25°C° 0.2 mm 1 mps 729 mmHg 94%
    07:00 +25°C° 0.2 mm 1 mps 729 mmHg 93%
    08:00 +27°C° 0.8 mm 1 mps 730 mmHg 85%
    09:00 +29°C° 0.8 mm 1 mps 730 mmHg 77%
    10:00 +31°C° 0.8 mm 2 mps 731 mmHg 69%
    11:00 +33°C° 0.3 mm 1 mps 730 mmHg 59%
    12:00 +35°C° 0.3 mm 1 mps 729 mmHg 50%
    13:00 +39°C° 0.3 mm 1 mps 729 mmHg 40%
    14:00 +35°C° 0 mm 0 mps 728 mmHg 41%
    15:00 +34°C° 0 mm 0 mps 728 mmHg 43%
    16:00 +33°C° 0 mm 0 mps 727 mmHg 44%
    17:00 +33°C° 0 mm 1 mps 727 mmHg 50%
    18:00 +32°C° 0 mm 1 mps 728 mmHg 57%
    19:00 +30°C° 0 mm 1 mps 728 mmHg 63%
    20:00 +29°C° 0.2 mm 1 mps 728 mmHg 70%
    21:00 +27°C° 0.2 mm 1 mps 728 mmHg 78%
    22:00 +26°C° 0.2 mm 1 mps 729 mmHg 85%
    23:00 +26°C° 0.1 mm 1 mps 729 mmHg 87%

    Day after tomorrow, 23 September, Sunday

    Time Temperature Precipitation Wind Pressure Humidity
    00:00 +25°C° 0.1 mm 1 mps 728 mmHg 90%
    01:00 +25°C° 0.1 mm 1 mps 728 mmHg 92%
    02:00 +25°C° 1.2 mm 1 mps 728 mmHg 94%
    03:00 +24°C° 1.2 mm 1 mps 729 mmHg 95%
    04:00 +24°C° 1.2 mm 1 mps 729 mmHg 97%
    05:00 +24°C° 1 mm 1 mps 729 mmHg 96%
    06:00 +25°C° 1 mm 1 mps 730 mmHg 95%
    07:00 +25°C° 1 mm 1 mps 731 mmHg 94%
    08:00 +26°C° 1.7 mm 1 mps 731 mmHg 92%
    09:00 +26°C° 1.7 mm 1 mps 731 mmHg 90%
    10:00 +27°C° 1.7 mm 2 mps 732 mmHg 89%
    11:00 +28°C° 0.9 mm 2 mps 731 mmHg 86%
    12:00 +28°C° 0.9 mm 2 mps 731 mmHg 82%
    13:00 +29°C° 0.9 mm 2 mps 730 mmHg 79%
    14:00 +28°C° 1.4 mm 2 mps 730 mmHg 83%
    15:00 +27°C° 1.4 mm 1 mps 729 mmHg 86%
    16:00 +27°C° 1.4 mm 1 mps 729 mmHg 90%
    17:00 +26°C° 0 mm 1 mps 729 mmHg 91%
    18:00 +25°C° 0 mm 1 mps 729 mmHg 93%
    19:00 +25°C° 0 mm 1 mps 729 mmHg 94%
    20:00 +24°C° 0 mm 1 mps 729 mmHg 95%
    21:00 +22°C° 0 mm 0 mps 730 mmHg 96%
    22:00 +22°C° 0 mm 0 mps 730 mmHg 97%
    23:00 +21°C° 0 mm 0 mps 729 mmHg 97%

    24 September, Monday

    Time Temperature Precipitation Wind Pressure Humidity
    00:00 +21°C° 0 mm 0 mps 729 mmHg 97%
    01:00 +21°C° 0 mm 0 mps 729 mmHg 97%
    02:00 +21°C° 0 mm 0 mps 729 mmHg 97%
    03:00 +21°C° 0 mm 0 mps 729 mmHg 96%
    04:00 +20°C° 0 mm 0 mps 729 mmHg 96%
    05:00 +21°C° 0 mm 0 mps 730 mmHg 94%
    06:00 +23°C° 0 mm 1 mps 731 mmHg 92%
    07:00 +24°C° 0 mm 1 mps 731 mmHg 90%
    08:00 +27°C° 0 mm 1 mps 732 mmHg 78%
    09:00 +29°C° 0 mm 1 mps 732 mmHg 66%
    10:00 +32°C° 0 mm 2 mps 732 mmHg 54%
    11:00 +34°C° 0 mm 1 mps 731 mmHg 49%
    12:00 +35°C° 0 mm 1 mps 730 mmHg 44%
    13:00 +37°C° 0 mm 1 mps 729 mmHg 39%
    14:00 +36°C° 0 mm 1 mps 729 mmHg 41%
    15:00 +35°C° 0 mm 1 mps 728 mmHg 44%
    16:00 +34°C° 0 mm 1 mps 728 mmHg 47%
    17:00 +32°C° 0 mm 1 mps 728 mmHg 54%
    18:00 +30°C° 0 mm 1 mps 729 mmHg 61%
    19:00 +28°C° 0 mm 1 mps 729 mmHg 68%
    20:00 +27°C° 0 mm 1 mps 730 mmHg 74%
    21:00 +26°C° 0 mm 1 mps 730 mmHg 79%
    22:00 +26°C° 0 mm 1 mps 730 mmHg 84%
    23:00 +25°C° 0.1 mm 1 mps 730 mmHg 87%

    25 September, Tuesday

    Time Temperature Precipitation Wind Pressure Humidity
    00:00 +25°C° 0.1 mm 1 mps 729 mmHg 90%
    01:00 +24°C° 0.1 mm 1 mps 729 mmHg 93%
    02:00 +24°C° 0 mm 1 mps 729 mmHg 94%
    03:00 +24°C° 0 mm 1 mps 729 mmHg 95%
    04:00 +23°C° 0 mm 1 mps 729 mmHg 95%
    05:00 +24°C° 0 mm 1 mps 730 mmHg 93%
    06:00 +25°C° 0 mm 1 mps 730 mmHg 90%
    07:00 +25°C° 0 mm 1 mps 731 mmHg 88%
    08:00 +28°C° 0 mm 1 mps 731 mmHg 76%
    09:00 +30°C° 0 mm 1 mps 731 mmHg 64%
    10:00 +34°C° 0 mm 2 mps 732 mmHg 52%
    11:00 +32°C° 1.1 mm 2 mps 731 mmHg 57%
    12:00 +32°C° 1.1 mm 2 mps 730 mmHg 63%
    13:00 +31°C° 1.1 mm 2 mps 729 mmHg 68%
    14:00 +31°C° 1.7 mm 1 mps 728 mmHg 74%
    15:00 +30°C° 1.7 mm 1 mps 728 mmHg 80%
    16:00 +29°C° 1.7 mm 1 mps 728 mmHg 85%
    17:00 +28°C° 0.3 mm 1 mps 728 mmHg 88%
    18:00 +24°C° 0.3 mm 0 mps 729 mmHg 91%
    19:00 +23°C° 0.3 mm 0 mps 729 mmHg 94%
    20:00 +23°C° 0 mm 0 mps 730 mmHg 94%
    21:00 +25°C° 0 mm 1 mps 730 mmHg 94%
    22:00 +24°C° 0 mm 1 mps 730 mmHg 95%
    23:00 +24°C° 0 mm 1 mps 730 mmHg 95%

    26 September, Wednesday

    Time Temperature Precipitation Wind Pressure Humidity
    00:00 +24°C° 0 mm 1 mps 730 mmHg 96%
    01:00 +24°C° 0 mm 1 mps 729 mmHg 96%
    02:00 +24°C° 0 mm 1 mps 729 mmHg 96%
    03:00 +23°C° 0 mm 1 mps 729 mmHg 97%
    04:00 +23°C° 0 mm 1 mps 729 mmHg 97%
    05:00 +24°C° 0 mm 1 mps 730 mmHg 95%
    06:00 +24°C° 0 mm 1 mps 730 mmHg 93%
    07:00 +25°C° 0 mm 1 mps 731 mmHg 91%
    08:00 +27°C° 0 mm 1 mps 731 mmHg 80%
    09:00 +29°C° 0 mm 1 mps 731 mmHg 68%
    10:00 +31°C° 0 mm 1 mps 731 mmHg 57%
    11:00 +33°C° 0 mm 1 mps 730 mmHg 52%
    12:00 +34°C° 0 mm 1 mps 729 mmHg 46%
    13:00 +35°C° 0 mm 1 mps 728 mmHg 41%
    14:00 +35°C° 0 mm 1 mps 728 mmHg 44%
    15:00 +34°C° 0 mm 1 mps 728 mmHg 47%
    16:00 +31°C° 0 mm 0 mps 727 mmHg 50%
    17:00 +30°C° 0 mm 0 mps 728 mmHg 55%
    18:00 +28°C° 0 mm 0 mps 728 mmHg 60%
    19:00 +26°C° 0 mm 0 mps 729 mmHg 65%
    20:00 +26°C° 0 mm 0 mps 729 mmHg 67%
    21:00 +26°C° 0 mm 0 mps 729 mmHg 68%
    22:00 +25°C° 0 mm 0 mps 729 mmHg 70%
    23:00 +25°C° 0 mm 0 mps 729 mmHg 73%
    Show more